Time,TemperatureF,DewpointF,PressureIn,WindDirection,WindDirectionDegrees,WindSpeedMPH,WindSpeedGustMPH,Humidity,HourlyPrecipIn,Conditions,Clouds,dailyrainin,SoftwareType,DateUTC
2013-06-10 00:02:00,61.0,50.0,29.82,NW,321,0.0,0.0,67,0.00,,,0.01,,2013-06-10 05:02:00,
2013-06-10 00:12:00,61.0,50.0,29.82,NW,321,0.0,0.0,67,0.00,,,0.01,,2013-06-10 05:12:00,
2013-06-10 00:22:00,60.0,50.0,29.82,NW,321,0.0,0.0,70,0.00,,,0.01,,2013-06-10 05:22:00,
2013-06-10 00:32:00,59.0,50.0,29.82,NW,321,0.0,1.0,73,0.00,,,0.01,,2013-06-10 05:32:00,
2013-06-10 00:42:00,59.0,50.0,29.82,NW,321,0.0,1.0,73,0.00,,,0.01,,2013-06-10 05:42:00,
2013-06-10 00:52:00,58.0,50.0,29.83,NW,321,0.0,0.0,76,0.00,,,0.01,,2013-06-10 05:52:00,
2013-06-10 01:02:00,57.0,50.0,29.83,NW,321,0.0,0.0,77,0.00,,,0.01,,2013-06-10 06:02:00,
2013-06-10 01:12:00,57.0,50.0,29.83,NW,321,0.0,0.0,77,0.00,,,0.01,,2013-06-10 06:12:00,
2013-06-10 01:22:00,57.0,50.0,29.83,NW,321,0.0,1.0,78,0.00,,,0.01,,2013-06-10 06:22:00,
2013-06-10 01:32:00,56.0,50.0,29.83,NW,321,0.0,1.0,79,0.00,,,0.01,,2013-06-10 06:32:00,
2013-06-10 01:42:00,56.0,50.0,29.83,NW,321,0.0,1.0,79,0.00,,,0.01,,2013-06-10 06:42:00,
2013-06-10 01:52:00,55.0,49.0,29.83,NW,321,0.0,0.0,81,0.00,,,0.01,,2013-06-10 06:52:00,
2013-06-10 02:02:00,55.0,50.0,29.83,NW,321,0.0,0.0,82,0.00,,,0.01,,2013-06-10 07:02:00,
2013-06-10 02:12:00,55.0,50.0,29.83,NW,321,0.0,0.0,82,0.00,,,0.01,,2013-06-10 07:12:00,
2013-06-10 02:22:00,54.0,48.0,29.83,NW,320,0.0,1.0,81,0.00,,,0.01,,2013-06-10 07:22:00,
2013-06-10 02:32:00,54.0,49.0,29.83,NW,320,0.0,1.0,82,0.00,,,0.01,,2013-06-10 07:32:00,
2013-06-10 02:42:00,54.0,49.0,29.83,NW,320,0.0,1.0,82,0.00,,,0.01,,2013-06-10 07:42:00,
2013-06-10 02:52:00,53.0,48.0,29.83,NW,320,0.0,1.0,83,0.00,,,0.01,,2013-06-10 07:52:00,
2013-06-10 03:02:00,53.0,48.0,29.83,NW,320,0.0,0.0,84,0.00,,,0.01,,2013-06-10 08:02:00,
2013-06-10 03:12:00,53.0,48.0,29.83,NW,320,0.0,0.0,84,0.00,,,0.01,,2013-06-10 08:12:00,
2013-06-10 03:22:00,53.0,49.0,29.83,NW,320,0.0,1.0,85,0.00,,,0.01,,2013-06-10 08:22:00,
2013-06-10 03:32:00,53.0,49.0,29.83,NW,320,0.0,0.0,85,0.00,,,0.01,,2013-06-10 08:32:00,
2013-06-10 03:42:00,53.0,49.0,29.83,NW,320,0.0,0.0,85,0.00,,,0.01,,2013-06-10 08:42:00,
2013-06-10 03:52:00,52.0,48.0,29.83,NW,320,0.0,1.0,85,0.00,,,0.01,,2013-06-10 08:52:00,
2013-06-10 04:02:00,52.0,48.0,29.82,NW,320,0.0,0.0,86,0.00,,,0.01,,2013-06-10 09:02:00,
2013-06-10 04:12:00,52.0,48.0,29.82,NW,320,0.0,0.0,86,0.00,,,0.01,,2013-06-10 09:12:00,
2013-06-10 04:22:00,51.0,47.0,29.81,NW,320,0.0,0.0,87,0.00,,,0.01,,2013-06-10 09:22:00,
2013-06-10 04:32:00,53.0,51.0,29.80,North,5,1.0,4.0,92,0.00,,,0.01,,2013-06-10 09:32:00,
2013-06-10 04:42:00,53.0,51.0,29.80,North,5,1.0,4.0,92,0.00,,,0.01,,2013-06-10 09:42:00,
2013-06-10 04:53:00,57.0,53.0,29.80,NNE,28,0.0,6.0,87,0.00,,,0.01,,2013-06-10 09:53:00,
2013-06-10 05:03:00,57.0,53.0,29.80,NNE,28,0.0,0.0,85,0.00,,,0.01,,2013-06-10 10:03:00,
2013-06-10 05:12:00,57.0,53.0,29.80,NNE,28,0.0,0.0,85,0.00,,,0.01,,2013-06-10 10:12:00,
2013-06-10 05:22:00,56.0,52.0,29.81,NNE,28,0.0,1.0,85,0.00,,,0.01,,2013-06-10 10:22:00,
2013-06-10 05:33:00,55.0,51.0,29.82,SW,222,0.0,3.0,86,0.00,,,0.01,,2013-06-10 10:33:00,
2013-06-10 05:42:00,55.0,51.0,29.82,SW,222,0.0,3.0,86,0.00,,,0.01,,2013-06-10 10:42:00,
2013-06-10 05:52:00,55.0,52.0,29.82,South,178,0.0,3.0,88,0.00,,,0.01,,2013-06-10 10:52:00,
2013-06-10 06:03:00,55.0,52.0,29.83,SW,223,0.0,1.0,88,0.00,,,0.01,,2013-06-10 11:03:00,
2013-06-10 06:12:00,55.0,52.0,29.83,SW,223,0.0,1.0,88,0.00,,,0.01,,2013-06-10 11:12:00,
2013-06-10 06:22:00,54.0,51.0,29.82,SSW,200,0.0,1.0,89,0.00,,,0.01,,2013-06-10 11:22:00,
2013-06-10 06:32:00,54.0,51.0,29.82,SSW,200,0.0,1.0,89,0.00,,,0.01,,2013-06-10 11:32:00,
2013-06-10 06:42:00,54.0,51.0,29.82,SSW,200,0.0,1.0,89,0.00,,,0.01,,2013-06-10 11:42:00,
2013-06-10 06:52:00,55.0,52.0,29.82,SSW,200,0.0,1.0,90,0.00,,,0.01,,2013-06-10 11:52:00,
2013-06-10 07:02:00,55.0,52.0,29.81,SSW,200,0.0,1.0,89,0.00,,,0.01,,2013-06-10 12:02:00,
2013-06-10 07:12:00,55.0,52.0,29.81,SSW,200,0.0,1.0,89,0.00,,,0.01,,2013-06-10 12:12:00,
2013-06-10 07:22:00,55.0,52.0,29.82,SSW,200,0.0,0.0,89,0.00,,,0.01,,2013-06-10 12:22:00,
2013-06-10 07:32:00,57.0,53.0,29.81,SSW,203,0.0,1.0,87,0.00,,,0.01,,2013-06-10 12:32:00,
2013-06-10 07:42:00,57.0,53.0,29.81,SSW,203,0.0,1.0,87,0.00,,,0.01,,2013-06-10 12:42:00,
2013-06-10 07:52:00,60.0,55.0,29.81,SSW,203,0.0,2.0,84,0.00,,,0.01,,2013-06-10 12:52:00,
2013-06-10 08:02:00,62.0,56.0,29.81,SSW,203,0.0,1.0,82,0.00,,,0.00,,2013-06-10 13:02:00,
2013-06-10 08:12:00,62.0,56.0,29.81,SSW,203,0.0,1.0,82,0.00,,,0.00,,2013-06-10 13:12:00,
2013-06-10 08:22:00,64.0,56.0,29.81,South,186,0.0,3.0,75,0.00,,,0.00,,2013-06-10 13:22:00,
2013-06-10 08:32:00,66.0,57.0,29.81,SE,142,0.0,4.0,72,0.00,,,0.00,,2013-06-10 13:32:00,
2013-06-10 08:52:00,67.0,57.0,29.81,South,183,0.0,4.0,71,0.00,,,0.00,,2013-06-10 13:52:00,
2013-06-10 09:02:00,67.0,56.0,29.81,SSW,210,1.0,6.0,68,0.00,,,0.00,,2013-06-10 14:02:00,
2013-06-10 09:12:00,67.0,56.0,29.81,SSW,210,1.0,6.0,68,0.00,,,0.00,,2013-06-10 14:12:00,
2013-06-10 09:22:00,69.0,56.0,29.82,SSE,148,2.0,5.0,64,0.00,,,0.00,,2013-06-10 14:22:00,
2013-06-10 09:32:00,69.0,57.0,29.82,SSW,200,1.0,6.0,66,0.00,,,0.00,,2013-06-10 14:32:00,
2013-06-10 09:42:00,69.0,57.0,29.82,SSW,200,1.0,6.0,66,0.00,,,0.00,,2013-06-10 14:42:00,
2013-06-10 10:03:00,71.0,-99.9,29.81,North,350,2.0,3.0,-999,0.00,,,0.00,,2013-06-10 15:03:00,
2013-06-10 10:13:00,71.0,-99.9,29.81,North,350,2.0,3.0,-999,0.00,,,0.00,,2013-06-10 15:13:00,
2013-06-10 10:22:00,71.0,56.0,29.81,SSE,153,2.0,9.0,60,0.00,,,0.00,,2013-06-10 15:22:00,
2013-06-10 10:33:00,73.0,58.0,29.80,SSE,167,3.0,9.0,60,0.00,,,0.00,,2013-06-10 15:33:00,
2013-06-10 10:43:00,73.0,58.0,29.80,SSE,167,3.0,9.0,60,0.00,,,0.00,,2013-06-10 15:43:00,
2013-06-10 10:53:00,74.0,57.0,29.80,SE,140,1.0,5.0,56,0.00,,,0.00,,2013-06-10 15:53:00,
2013-06-10 11:03:00,75.0,57.0,29.80,SSE,165,1.0,10.0,54,0.00,,,0.00,,2013-06-10 16:03:00,
2013-06-10 11:12:00,75.0,57.0,29.80,SSE,165,1.0,10.0,54,0.00,,,0.00,,2013-06-10 16:12:00,
2013-06-10 11:23:00,76.0,58.0,29.81,South,182,2.0,7.0,53,0.00,,,0.00,,2013-06-10 16:23:00,
2013-06-10 11:33:00,77.0,57.0,29.81,SW,217,0.0,9.0,51,0.00,,,0.00,,2013-06-10 16:33:00,
2013-06-10 11:43:00,77.0,57.0,29.81,SW,217,0.0,9.0,51,0.00,,,0.00,,2013-06-10 16:43:00,
2013-06-10 11:53:00,77.0,56.0,29.80,South,188,1.0,8.0,49,0.00,,,0.00,,2013-06-10 16:53:00,
2013-06-10 12:03:00,79.0,58.0,29.81,South,191,1.0,6.0,48,0.00,,,0.00,,2013-06-10 17:03:00,
2013-06-10 12:14:00,79.0,58.0,29.81,South,191,1.0,6.0,48,0.00,,,0.00,,2013-06-10 17:14:00,
2013-06-10 12:27:00,79.0,58.0,29.80,SSE,153,1.0,7.0,49,0.00,,,0.00,,2013-06-10 17:27:00,
2013-06-10 12:38:00,80.0,57.0,29.80,SE,134,1.0,7.0,46,0.00,,,0.00,,2013-06-10 17:38:00,
2013-06-10 12:48:00,81.0,56.0,29.78,SSE,161,2.0,9.0,42,0.00,,,0.00,,2013-06-10 17:48:00,
2013-06-10 12:58:00,81.0,56.0,29.78,SSE,161,2.0,9.0,42,0.00,,,0.00,,2013-06-10 17:58:00,
2013-06-10 13:07:00,81.0,56.0,29.78,NE,34,3.0,10.0,43,0.00,,,0.00,,2013-06-10 18:07:00,
2013-06-10 13:14:00,81.0,56.0,29.78,NE,34,3.0,10.0,43,0.00,,,0.00,,2013-06-10 18:14:00,
2013-06-10 13:25:00,81.0,56.0,29.78,NE,34,3.0,10.0,43,0.00,,,0.00,,2013-06-10 18:25:00,
2013-06-10 13:34:00,83.0,56.0,29.77,South,190,2.0,10.0,40,0.00,,,0.00,,2013-06-10 18:34:00,
2013-06-10 13:48:00,83.0,56.0,29.77,South,190,2.0,10.0,40,0.00,,,0.00,,2013-06-10 18:48:00,
2013-06-10 13:55:00,84.0,56.0,29.76,SE,134,3.0,9.0,39,0.00,,,0.00,,2013-06-10 18:55:00,
2013-06-10 14:03:00,84.0,56.0,29.76,SSE,147,3.0,11.0,38,0.00,,,0.00,,2013-06-10 19:03:00,
2013-06-10 14:13:00,84.0,56.0,29.76,SSE,147,3.0,11.0,38,0.00,,,0.00,,2013-06-10 19:13:00,
2013-06-10 14:22:00,85.0,56.0,29.75,SE,127,3.0,10.0,37,0.00,,,0.00,,2013-06-10 19:22:00,
2013-06-10 14:33:00,85.0,55.0,29.74,ESE,107,3.0,12.0,36,0.00,,,0.00,,2013-06-10 19:33:00,
2013-06-10 14:43:00,85.0,55.0,29.74,ESE,107,3.0,12.0,36,0.00,,,0.00,,2013-06-10 19:43:00,
2013-06-10 14:53:00,86.0,55.0,29.74,SE,130,2.0,10.0,35,0.00,,,0.00,,2013-06-10 19:53:00,
2013-06-10 15:03:00,86.0,54.0,29.73,SSE,153,4.0,13.0,34,0.00,,,0.00,,2013-06-10 20:03:00,
2013-06-10 15:12:00,86.0,54.0,29.73,SSE,153,4.0,13.0,34,0.00,,,0.00,,2013-06-10 20:12:00,
2013-06-10 15:22:00,87.0,56.0,29.72,South,184,3.0,11.0,35,0.00,,,0.00,,2013-06-10 20:22:00,
2013-06-10 15:32:00,87.0,54.0,29.72,ESE,111,4.0,13.0,33,0.00,,,0.00,,2013-06-10 20:32:00,
2013-06-10 15:43:00,87.0,54.0,29.72,ESE,111,4.0,13.0,33,0.00,,,0.00,,2013-06-10 20:43:00,
2013-06-10 15:52:00,87.0,56.0,29.72,SSE,154,3.0,12.0,35,0.00,,,0.00,,2013-06-10 20:52:00,
2013-06-10 16:02:00,88.0,58.0,29.71,West,259,3.0,9.0,36,0.00,,,0.00,,2013-06-10 21:02:00,
2013-06-10 16:12:00,88.0,58.0,29.71,West,259,3.0,9.0,36,0.00,,,0.00,,2013-06-10 21:12:00,
2013-06-10 16:22:00,88.0,58.0,29.70,South,178,3.0,10.0,36,0.00,,,0.00,,2013-06-10 21:22:00,
2013-06-10 16:33:00,88.0,58.0,29.70,ESE,118,5.0,14.0,37,0.00,,,0.00,,2013-06-10 21:33:00,
2013-06-10 16:43:00,88.0,58.0,29.70,ESE,118,5.0,14.0,37,0.00,,,0.00,,2013-06-10 21:43:00,
2013-06-10 16:53:00,88.0,60.0,29.70,SSE,157,3.0,13.0,39,0.00,,,0.00,,2013-06-10 21:53:00,
2013-06-10 17:03:00,88.0,60.0,29.70,South,184,5.0,13.0,39,0.00,,,0.00,,2013-06-10 22:03:00,
2013-06-10 17:13:00,88.0,60.0,29.70,South,184,5.0,13.0,39,0.00,,,0.00,,2013-06-10 22:13:00,
2013-06-10 17:22:00,88.0,61.0,29.70,SW,219,4.0,10.0,40,0.00,,,0.00,,2013-06-10 22:22:00,
2013-06-10 17:33:00,88.0,61.0,29.70,South,170,3.0,12.0,40,0.00,,,0.00,,2013-06-10 22:33:00,
2013-06-10 17:42:00,88.0,61.0,29.70,South,170,3.0,12.0,40,0.00,,,0.00,,2013-06-10 22:42:00,
2013-06-10 17:52:00,88.0,61.0,29.70,SE,143,3.0,13.0,40,0.00,,,0.00,,2013-06-10 22:52:00,
2013-06-10 18:02:00,88.0,60.0,29.70,WSW,254,2.0,10.0,39,0.00,,,0.00,,2013-06-10 23:02:00,
2013-06-10 18:12:00,88.0,60.0,29.70,WSW,254,2.0,10.0,39,0.00,,,0.00,,2013-06-10 23:12:00,
2013-06-10 18:22:00,88.0,60.0,29.70,South,179,2.0,9.0,39,0.00,,,0.00,,2013-06-10 23:22:00,
2013-06-10 18:32:00,88.0,62.0,29.69,East,99,5.0,12.0,42,0.00,,,0.00,,2013-06-10 23:32:00,
2013-06-10 18:42:00,88.0,62.0,29.69,East,99,5.0,12.0,42,0.00,,,0.00,,2013-06-10 23:42:00,
2013-06-10 18:52:00,88.0,62.0,29.69,SSE,167,2.0,11.0,42,0.00,,,0.00,,2013-06-10 23:52:00,
2013-06-10 19:02:00,88.0,63.0,29.69,South,178,3.0,11.0,43,0.00,,,0.00,,2013-06-11 00:02:00,
2013-06-10 19:12:00,87.0,63.0,29.69,South,181,3.0,13.0,45,0.00,,,0.00,,2013-06-11 00:12:00,
2013-06-10 19:22:00,87.0,63.0,29.69,South,181,3.0,13.0,45,0.00,,,0.00,,2013-06-11 00:22:00,
2013-06-10 19:32:00,87.0,64.0,29.69,SSE,159,3.0,8.0,46,0.00,,,0.00,,2013-06-11 00:32:00,
2013-06-10 19:42:00,87.0,64.0,29.69,SSE,159,3.0,8.0,46,0.00,,,0.00,,2013-06-11 00:42:00,
2013-06-10 19:52:00,86.0,64.0,29.68,SSE,166,2.0,8.0,48,0.00,,,0.00,,2013-06-11 00:52:00,
2013-06-10 20:02:00,86.0,65.0,29.69,SSW,196,2.0,9.0,49,0.00,,,0.00,,2013-06-11 01:02:00,
2013-06-10 20:12:00,86.0,65.0,29.69,SSW,196,2.0,9.0,49,0.00,,,0.00,,2013-06-11 01:12:00,
2013-06-10 20:22:00,85.0,65.0,29.69,South,176,2.0,8.0,51,0.00,,,0.00,,2013-06-11 01:22:00,
2013-06-10 20:32:00,84.0,65.0,29.68,South,176,1.0,5.0,53,0.00,,,0.00,,2013-06-11 01:32:00,
2013-06-10 20:42:00,84.0,65.0,29.68,South,176,1.0,5.0,53,0.00,,,0.00,,2013-06-11 01:42:00,
2013-06-10 20:53:00,82.0,64.0,29.68,ESE,110,1.0,6.0,55,0.00,,,0.00,,2013-06-11 01:53:00,
2013-06-10 21:02:00,82.0,65.0,29.67,SE,128,1.0,7.0,57,0.00,,,0.00,,2013-06-11 02:02:00,
2013-06-10 21:12:00,82.0,65.0,29.67,SE,128,1.0,7.0,57,0.00,,,0.00,,2013-06-11 02:12:00,
2013-06-10 21:22:00,81.0,65.0,29.68,South,179,0.0,2.0,59,0.00,,,0.00,,2013-06-11 02:22:00,
2013-06-10 21:32:00,80.0,65.0,29.68,SSE,160,0.0,4.0,60,0.00,,,0.00,,2013-06-11 02:32:00,
2013-06-10 21:42:00,79.0,65.0,29.68,South,185,0.0,7.0,62,0.00,,,0.00,,2013-06-11 02:42:00,
2013-06-10 21:52:00,79.0,65.0,29.68,South,185,0.0,7.0,62,0.00,,,0.00,,2013-06-11 02:52:00,
2013-06-10 22:02:00,78.0,64.0,29.68,East,91,0.0,4.0,63,0.00,,,0.00,,2013-06-11 03:02:00,
2013-06-10 22:13:00,78.0,64.0,29.68,East,91,0.0,4.0,63,0.00,,,0.00,,2013-06-11 03:13:00,
2013-06-10 22:22:00,78.0,65.0,29.68,South,171,0.0,7.0,64,0.00,,,0.00,,2013-06-11 03:22:00,
2013-06-10 22:32:00,77.0,65.0,29.68,South,177,1.0,7.0,66,0.00,,,0.00,,2013-06-11 03:32:00,
2013-06-10 22:43:00,77.0,65.0,29.69,SW,219,2.0,6.0,67,0.00,,,0.00,,2013-06-11 03:43:00,
2013-06-10 22:53:00,77.0,65.0,29.69,SW,219,2.0,6.0,67,0.00,,,0.00,,2013-06-11 03:53:00,
2013-06-10 23:03:00,77.0,66.0,29.69,SE,141,1.0,7.0,68,0.00,,,0.00,,2013-06-11 04:03:00,
2013-06-10 23:12:00,77.0,66.0,29.69,SE,141,1.0,7.0,68,0.00,,,0.00,,2013-06-11 04:12:00,
2013-06-10 23:23:00,77.0,66.0,29.69,South,178,1.0,6.0,69,0.00,,,0.00,,2013-06-11 04:23:00,
2013-06-10 23:33:00,77.0,66.0,29.69,SE,129,0.0,7.0,69,0.00,,,0.00,,2013-06-11 04:33:00,
2013-06-10 23:42:00,77.0,66.0,29.69,SE,129,0.0,7.0,69,0.00,,,0.00,,2013-06-11 04:42:00,
2013-06-10 23:53:00,77.0,66.0,29.68,East,86,1.0,8.0,69,0.00,,,0.00,,2013-06-11 04:53:00,